Air Quality Table

TIMESTAMP NO2 SO2 O3 PM10 PM2.5 TEMP HUM AIRPRES WS WD NO
2022-08-10 21:00 4.94 µg/m3 -0.06 µg/m3 72.01 µg/m3 27.04 µg/m3 6.65 µg/m3 27.9 °C 71.28 % 1,006.56 mbar 0.83 m/s 237.89 Deg 0.73 µg/m3
2022-08-10 20:00 3.83 µg/m3 -0.04 µg/m3 78.37 µg/m3 32.15 µg/m3 7.24 µg/m3 28.25 °C 72.37 % 1,006.40 mbar 0.89 m/s 222.88 Deg 0.69 µg/m3
2022-08-10 19:00 4.98 µg/m3 -0.04 µg/m3 74.3 µg/m3 17.62 µg/m3 6.9 µg/m3 29.04 °C 69.75 % 1,006.25 mbar 1.21 m/s 268.91 Deg 0.85 µg/m3
2022-08-10 18:00 3.37 µg/m3 -0.02 µg/m3 74.66 µg/m3 15.5 µg/m3 6.45 µg/m3 29.69 °C 65.69 % 1,006.01 mbar 1.75 m/s 226.88 Deg 0.87 µg/m3
2022-08-10 17:00 2.57 µg/m3 -0.1 µg/m3 77.92 µg/m3 10.27 µg/m3 6.19 µg/m3 29.56 °C 65.54 % 1,006.07 mbar 2.66 m/s 198.13 Deg 0.97 µg/m3
2022-08-10 16:00 2.33 µg/m3 -0.08 µg/m3 77.48 µg/m3 8.33 µg/m3 4.84 µg/m3 29.48 °C 66 % 1,006.14 mbar 3.8 m/s 183.1 Deg 1 µg/m3
2022-08-10 15:00 2.35 µg/m3 -0.1 µg/m3 74.38 µg/m3 10.64 µg/m3 4.52 µg/m3 29.28 °C 71.96 % 1,006.27 mbar 4.45 m/s 165.63 Deg 1.03 µg/m3
2022-08-10 14:00 1.15 µg/m3 -0.08 µg/m3 75.83 µg/m3 12.46 µg/m3 5.25 µg/m3 29.16 °C 75.65 % 1,006.90 mbar 3.91 m/s 156.65 Deg 0.82 µg/m3
2022-08-10 13:00 0.49 µg/m3 -0.07 µg/m3 84.89 µg/m3 11.45 µg/m3 5.92 µg/m3 28.99 °C 77.91 % 1,007.13 mbar 4.69 m/s 132.72 Deg 0.67 µg/m3
2022-08-10 12:00 1.72 µg/m3 -0.07 µg/m3 82.43 µg/m3 10.04 µg/m3 5.64 µg/m3 29.32 °C 74.39 % 1,007.31 mbar 3.51 m/s 141.93 Deg 0.87 µg/m3
2022-08-10 11:00 6.1 µg/m3 -0.06 µg/m3 82.88 µg/m3 11.88 µg/m3 7.75 µg/m3 29.11 °C 76.1 % 1,007.38 mbar 3.75 m/s 146.97 Deg 1.75 µg/m3
2022-08-10 10:00 3.01 µg/m3 -0.05 µg/m3 85.15 µg/m3 15.34 µg/m3 11.14 µg/m3 28.82 °C 75.58 % 1,007.30 mbar 3.5 m/s 147 Deg 1.12 µg/m3
2022-08-10 09:00 16.46 µg/m3 -0.05 µg/m3 74.23 µg/m3 23.64 µg/m3 15.29 µg/m3 28.74 °C 73.67 % 1,007.17 mbar 2.38 m/s 156.1 Deg 3.34 µg/m3
2022-08-10 08:00 12.35 µg/m3 -0.03 µg/m3 76 µg/m3 41.51 µg/m3 19.91 µg/m3 28.23 °C 79.17 % 1,007.01 mbar 1.54 m/s 191.5 Deg 2.41 µg/m3
2022-08-10 07:00 23.16 µg/m3 -0.04 µg/m3 61.87 µg/m3 31.13 µg/m3 11.14 µg/m3 26.98 °C 88.93 % 1,006.89 mbar 1.11 m/s 249.83 Deg 2.42 µg/m3
2022-08-10 06:00 16.37 µg/m3 -0.03 µg/m3 54.06 µg/m3 32.29 µg/m3 11.12 µg/m3 26.59 °C 90.73 % 1,006.68 mbar 1.21 m/s 230.35 Deg 1.44 µg/m3
2022-08-10 05:00 10.12 µg/m3 -0.06 µg/m3 50.4 µg/m3 32.38 µg/m3 13.81 µg/m3 26.73 °C 91.68 % 1,006.28 mbar 0.96 m/s 188.87 Deg 1.11 µg/m3
2022-08-10 04:00 9.77 µg/m3 0.11 µg/m3 47.96 µg/m3 37.09 µg/m3 21.4 µg/m3 26.82 °C 91.75 % 1,006.35 mbar 0.83 m/s 196.83 Deg 0.94 µg/m3
2022-08-10 03:00 10.79 µg/m3 -0.03 µg/m3 43.35 µg/m3 27.83 µg/m3 8.67 µg/m3 26.9 °C 91.65 % 1,006.45 mbar 0.78 m/s 171.12 Deg 1.2 µg/m3
2022-08-10 02:00 8.13 µg/m3 -0.05 µg/m3 45.6 µg/m3 23.45 µg/m3 11.09 µg/m3 27.04 °C 90.41 % 1,006.63 mbar 1.11 m/s 207.47 Deg 0.96 µg/m3
2022-08-10 01:00 7.49 µg/m3 -0.05 µg/m3 58.96 µg/m3 32.55 µg/m3 17.62 µg/m3 27.29 °C 89.62 % 1,006.90 mbar 0.72 m/s 209.2 Deg 0.91 µg/m3
2022-08-10 00:00 7.92 µg/m3 -0.03 µg/m3 64.91 µg/m3 35.61 µg/m3 16.67 µg/m3 27.63 °C 88.32 % 1,007.26 mbar 0.62 m/s 283.33 Deg 0.83 µg/m3
2022-08-09 23:00 8.41 µg/m3 -0.05 µg/m3 68.22 µg/m3 41.31 µg/m3 18.35 µg/m3 27.91 °C 86.68 % 1,007.33 mbar 1.05 m/s 185.77 Deg 1.17 µg/m3
2022-08-09 22:00 10.74 µg/m3 -0.07 µg/m3 64.62 µg/m3 32.66 µg/m3 18.24 µg/m3 28.1 °C 84.85 % 1,007.17 mbar 1.31 m/s 291 Deg 1.06 µg/m3
2022-08-09 21:00 26.14 µg/m3 -0.09 µg/m3 55.83 µg/m3 37.46 µg/m3 8.67 µg/m3 28.45 °C 83.67 % 1,007.08 mbar 1.39 m/s 238.93 Deg 1.74 µg/m3
2022-08-09 20:00 23.75 µg/m3 -0.05 µg/m3 59.81 µg/m3 33.22 µg/m3 11.05 µg/m3 28.84 °C 79.19 % 1,006.71 mbar 1.99 m/s 98.05 Deg 2.05 µg/m3
2022-08-09 19:00 10.17 µg/m3 -0.09 µg/m3 73.72 µg/m3 30.28 µg/m3 12.06 µg/m3 29.21 °C 75.83 % 1,006.42 mbar 2.4 m/s 9.4 Deg 1.36 µg/m3
2022-08-09 18:00 8.74 µg/m3 -0.07 µg/m3 76.75 µg/m3 37.87 µg/m3 10.36 µg/m3 29.64 °C 75.89 % 1,006.44 mbar 2.54 m/s 100.15 Deg 1.95 µg/m3
2022-08-09 17:00 5.49 µg/m3 -0.04 µg/m3 73.71 µg/m3 36.21 µg/m3 5.33 µg/m3 30.81 °C 70.48 % 1,006.13 mbar 1.72 m/s 286.39 Deg 1.44 µg/m3
2022-08-09 16:00 5.06 µg/m3 -0.06 µg/m3 72.41 µg/m3 34.24 µg/m3 6.8 µg/m3 31.07 °C 68.11 % 1,006.08 mbar 2.97 m/s 242.54 Deg 1.58 µg/m3
2022-08-09 15:00 3.42 µg/m3 -0.09 µg/m3 76.49 µg/m3 18.03 µg/m3 7.25 µg/m3 31.04 °C 64.86 % 1,006.34 mbar 3.68 m/s 231.13 Deg 1.2 µg/m3
2022-08-09 14:00 2.33 µg/m3 -0.07 µg/m3 95.73 µg/m3 12.62 µg/m3 9.46 µg/m3 31.01 °C 60.67 % 1,006.61 mbar 4.2 m/s 214.35 Deg 0.88 µg/m3
2022-08-09 13:00 2.72 µg/m3 -0.04 µg/m3 104.43 µg/m3 14.57 µg/m3 11.97 µg/m3 30.79 °C 60.21 % 1,007.06 mbar 4.09 m/s 193.87 Deg 0.84 µg/m3
2022-08-09 12:00 6.92 µg/m3 -0.05 µg/m3 112.22 µg/m3 23.17 µg/m3 16.58 µg/m3 30.24 °C 67.88 % 1,007.36 mbar 4.1 m/s 177.82 Deg 1.27 µg/m3
2022-08-09 11:00 14.07 µg/m3 -0.04 µg/m3 105.35 µg/m3 28.63 µg/m3 13.55 µg/m3 29.59 °C 73.53 % 1,007.49 mbar 3.4 m/s 158.31 Deg 2.3 µg/m3
2022-08-09 10:00 7.66 µg/m3 -0.07 µg/m3 102.61 µg/m3 33.82 µg/m3 13.54 µg/m3 29.52 °C 74.37 % 1,007.33 mbar 2.6 m/s 185.93 Deg 1.42 µg/m3
2022-08-09 09:00 4.12 µg/m3 -0.04 µg/m3 99.02 µg/m3 54.54 µg/m3 15.1 µg/m3 29.52 °C 72.45 % 1,007.10 mbar 1.99 m/s 180.38 Deg 1.04 µg/m3
2022-08-09 08:00 10.31 µg/m3 -0.02 µg/m3 92.21 µg/m3 88.71 µg/m3 21.3 µg/m3 28.81 °C 77.46 % 1,006.95 mbar 1.09 m/s 167.61 Deg 1.78 µg/m3
2022-08-09 07:00 32.13 µg/m3 0.09 µg/m3 61.93 µg/m3 100.53 µg/m3 23.88 µg/m3 27.94 °C 85.42 % 1,006.71 mbar 0.74 m/s 107.26 Deg 3.55 µg/m3
2022-08-09 06:00 55.09 µg/m3 0.17 µg/m3 27.37 µg/m3 47.72 µg/m3 9.88 µg/m3 27.01 °C 85.29 % 1,006.29 mbar 0.43 m/s 241.08 Deg 9.27 µg/m3
2022-08-09 05:00 24.33 µg/m3 0.01 µg/m3 61.88 µg/m3 22.02 µg/m3 16.13 µg/m3 27.03 °C 85.14 % 1,006.04 mbar 0.82 m/s 326.27 Deg 1.53 µg/m3
2022-08-09 04:00 8.2 µg/m3 0.06 µg/m3 73.14 µg/m3 23.12 µg/m3 10.13 µg/m3 26.99 °C 86.79 % 1,005.97 mbar 0.43 m/s 273.14 Deg 0.88 µg/m3
2022-08-09 03:00 12.31 µg/m3 -0.07 µg/m3 70.18 µg/m3 34.01 µg/m3 14.33 µg/m3 27.13 °C 86.59 % 1,005.99 mbar 0.66 m/s 305.65 Deg 1.1 µg/m3
2022-08-09 02:00 4.69 µg/m3 -0.07 µg/m3 80.48 µg/m3 32.74 µg/m3 13.18 µg/m3 27.34 °C 90.04 % 1,006.01 mbar 0.58 m/s 180.84 Deg 0.72 µg/m3
2022-08-09 01:00 4.68 µg/m3 -0.07 µg/m3 91.84 µg/m3 45.03 µg/m3 10.83 µg/m3 27.68 °C 88.71 % 1,006.26 mbar 1.11 m/s 97.17 Deg 0.75 µg/m3
2022-08-09 00:00 5.31 µg/m3 -0.05 µg/m3 97.32 µg/m3 29.67 µg/m3 17.33 µg/m3 27.82 °C 86.08 % 1,006.75 mbar 1.25 m/s 38.57 Deg 0.94 µg/m3
2022-08-08 23:00 7.98 µg/m3 -0.04 µg/m3 95.31 µg/m3 34.55 µg/m3 19.78 µg/m3 27.82 °C 86.54 % 1,006.89 mbar 1.43 m/s 39.9 Deg 0.78 µg/m3
2022-08-08 22:00 4.84 µg/m3 -0.02 µg/m3 97.85 µg/m3 44.36 µg/m3 14.37 µg/m3 27.93 °C 87.72 % 1,006.74 mbar 1.23 m/s 184.97 Deg 1.38 µg/m3
2022-08-08 21:00 6.24 µg/m3 -0.02 µg/m3 100.16 µg/m3 31.11 µg/m3 9.89 µg/m3 28.27 °C 85.52 % 1,006.70 mbar 1.39 m/s 117.02 Deg 0.82 µg/m3
2022-08-08 20:00 8.07 µg/m3 -0.05 µg/m3 98.53 µg/m3 32.44 µg/m3 14.08 µg/m3 28.45 °C 83.41 % 1,005.93 mbar 1.27 m/s 152.72 Deg 0.78 µg/m3
2022-08-08 19:00 9.36 µg/m3 -0.03 µg/m3 101.24 µg/m3 29.63 µg/m3 21.22 µg/m3 28.99 °C 80.48 % 1,005.33 mbar 1.65 m/s 29.37 Deg 1.19 µg/m3
2022-08-08 18:00 3.89 µg/m3 -0.06 µg/m3 110.14 µg/m3 33.83 µg/m3 19.06 µg/m3 29.37 °C 78.95 % 1,004.90 mbar 2.28 m/s 211.3 Deg 0.81 µg/m3
2022-08-08 17:00 5.48 µg/m3 0.01 µg/m3 107.08 µg/m3 21.23 µg/m3 20.59 µg/m3 30.16 °C 74.91 % 1,004.94 mbar 2.11 m/s 176.69 Deg 1.39 µg/m3
2022-08-08 16:00 2.48 µg/m3 0.01 µg/m3 109.92 µg/m3 22.72 µg/m3 12.6 µg/m3 30.13 °C 73.52 % 1,004.74 mbar 2.97 m/s 174.89 Deg 0.82 µg/m3
2022-08-08 15:00 3.79 µg/m3 0.02 µg/m3 106.82 µg/m3 27.32 µg/m3 7.88 µg/m3 30.45 °C 72.54 % 1,004.85 mbar 2.94 m/s 175.13 Deg 0.95 µg/m3
2022-08-08 14:00 1.84 µg/m3 0.23 µg/m3 101.79 µg/m3 23.02 µg/m3 12.88 µg/m3 30.38 °C 76.03 % 1,005.33 mbar 2.96 m/s 261.11 Deg 0.84 µg/m3
2022-08-08 13:00 4.79 µg/m3 0 µg/m3 111.34 µg/m3 28.22 µg/m3 6.2 µg/m3 30.49 °C 75.49 % 1,005.21 mbar 3.16 m/s 224.72 Deg 0.94 µg/m3
2022-08-08 12:00 5.68 µg/m3 0 µg/m3 100.17 µg/m3 17.54 µg/m3 8.14 µg/m3 30.36 °C 76.57 % 1,005.39 mbar 2.67 m/s 111.3 Deg 1.1 µg/m3
2022-08-08 11:00 6.82 µg/m3 0 µg/m3 93.53 µg/m3 12.44 µg/m3 7.32 µg/m3 30.37 °C 71.84 % 1,005.42 mbar 2.64 m/s 184.68 Deg 1.36 µg/m3
2022-08-08 10:00 7.87 µg/m3 0 µg/m3 83.13 µg/m3 17.24 µg/m3 8.52 µg/m3 30.02 °C 71.87 % 1,005.37 mbar 2.51 m/s 185.65 Deg 1.49 µg/m3
2022-08-08 09:00 8.88 µg/m3 0 µg/m3 74.77 µg/m3 26.14 µg/m3 12.59 µg/m3 29.99 °C 68.19 % 1,005.09 mbar 2.18 m/s 214.73 Deg 1.3 µg/m3
2022-08-08 08:00 13.19 µg/m3 0 µg/m3 54.73 µg/m3 46.06 µg/m3 18.71 µg/m3 28.53 °C 80.74 % 1,004.79 mbar 1.15 m/s 195.33 Deg 2.69 µg/m3
2022-08-08 07:00 18.73 µg/m3 0 µg/m3 30.08 µg/m3 48.07 µg/m3 18.67 µg/m3 26.5 °C 99.2 % 1,004.44 mbar 0.71 m/s 138.75 Deg 4.08 µg/m3
2022-08-08 06:00 30.35 µg/m3 0 µg/m3 20.84 µg/m3 47.31 µg/m3 7.77 µg/m3 26.21 °C 99.9 % 1,004.07 mbar 0.6 m/s 166 Deg 2.55 µg/m3
2022-08-08 05:00 25.61 µg/m3 0 µg/m3 18.94 µg/m3 19.46 µg/m3 10.65 µg/m3 26.26 °C 96.27 % 1,003.68 mbar 0.81 m/s 155.75 Deg 2.92 µg/m3
2022-08-08 04:00 6.84 µg/m3 0 µg/m3 48.86 µg/m3 12.47 µg/m3 9.43 µg/m3 26.46 °C 91.68 % 1,003.39 mbar 0.6 m/s 237.69 Deg 0.86 µg/m3
2022-08-08 03:00 5.79 µg/m3 0 µg/m3 45.22 µg/m3 16 µg/m3 8.81 µg/m3 26.66 °C 91.27 % 1,003.46 mbar 0.63 m/s 214.58 Deg 0.77 µg/m3
2022-08-08 02:00 5.76 µg/m3 0 µg/m3 44.28 µg/m3 23.9 µg/m3 11.32 µg/m3 26.77 °C 93.89 % 1,003.54 mbar 0.87 m/s 276.65 Deg 0.79 µg/m3
2022-08-08 01:00 9.24 µg/m3 0 µg/m3 45.12 µg/m3 36.53 µg/m3 15.25 µg/m3 27.15 °C 92.26 % 1,003.81 mbar 0.69 m/s 313.76 Deg 0.83 µg/m3
2022-08-08 00:00 9.18 µg/m3 0 µg/m3 50.14 µg/m3 52.68 µg/m3 23.06 µg/m3 27.22 °C 92.95 % 1,004.09 mbar 1.28 m/s 318.07 Deg 1.05 µg/m3
2022-08-07 23:00 15.37 µg/m3 0 µg/m3 49.98 µg/m3 47.69 µg/m3 13.24 µg/m3 27.51 °C 89.74 % 1,004.16 mbar 1.51 m/s 307.22 Deg 1.24 µg/m3
2022-08-07 22:00 21.56 µg/m3 0 µg/m3 52.14 µg/m3 35.6 µg/m3 20.03 µg/m3 28.19 °C 79.83 % 1,004.11 mbar 1.48 m/s 312.1 Deg 1.51 µg/m3
2022-08-07 21:00 24.57 µg/m3 0 µg/m3 57.59 µg/m3 41.74 µg/m3 12.83 µg/m3 28.26 °C 81.53 % 1,003.96 mbar 1.69 m/s 347.53 Deg 1.8 µg/m3
2022-08-07 20:00 19.4 µg/m3 0 µg/m3 71.55 µg/m3 34.63 µg/m3 13.91 µg/m3 28.41 °C 78.75 % 1,003.47 mbar 2.37 m/s 347.43 Deg 1.56 µg/m3
2022-08-07 19:00 16.08 µg/m3 0 µg/m3 81.17 µg/m3 22.97 µg/m3 10.37 µg/m3 28.72 °C 77.79 % 1,003.00 mbar 3.19 m/s 184.35 Deg 1.48 µg/m3
2022-08-07 18:00 8.41 µg/m3 0 µg/m3 104 µg/m3 18.38 µg/m3 9.62 µg/m3 29.57 °C 68.94 % 1,002.58 mbar 3.57 m/s 13.98 Deg 1.32 µg/m3
2022-08-07 17:00 6.25 µg/m3 0 µg/m3 107.99 µg/m3 11.13 µg/m3 4.83 µg/m3 31.16 °C 62.42 % 1,002.65 mbar 2.95 m/s 97.15 Deg 1.05 µg/m3
2022-08-07 16:00 2.68 µg/m3 0 µg/m3 111.34 µg/m3 7.32 µg/m3 4.05 µg/m3 31.51 °C 56.83 % 1,002.74 mbar 3.44 m/s 228.2 Deg 0.73 µg/m3
2022-08-07 15:00 2.94 µg/m3 0 µg/m3 110.2 µg/m3 8.03 µg/m3 4.41 µg/m3 30.44 °C 62.95 % 1,003.05 mbar 4.12 m/s 164.4 Deg 0.8 µg/m3
2022-08-07 14:00 5.44 µg/m3 0 µg/m3 107.82 µg/m3 9.36 µg/m3 5.34 µg/m3 30.46 °C 64.98 % 1,003.47 mbar 3 m/s 155.38 Deg 1.08 µg/m3
2022-08-07 13:00 4.57 µg/m3 0 µg/m3 103.27 µg/m3 9.07 µg/m3 4.97 µg/m3 30.8 °C 61.87 % 1,003.85 mbar 2.81 m/s 158.58 Deg 0.97 µg/m3
2022-08-07 12:00 3.22 µg/m3 0 µg/m3 95.5 µg/m3 12.27 µg/m3 5.03 µg/m3 31.09 °C 58.94 % 1,004.18 mbar 2.26 m/s 212.72 Deg 1.13 µg/m3
2022-08-07 11:00 3.73 µg/m3 0 µg/m3 91.98 µg/m3 16.6 µg/m3 7.19 µg/m3 30.91 °C 60.66 % 1,004.46 mbar 2.19 m/s 236.17 Deg 0.86 µg/m3
2022-08-07 10:00 5.94 µg/m3 0 µg/m3 85.36 µg/m3 23.8 µg/m3 9.82 µg/m3 30.19 °C 67.12 % 1,004.59 mbar 2.02 m/s 30.42 Deg 1.16 µg/m3
2022-08-07 09:00 4.47 µg/m3 0 µg/m3 81.77 µg/m3 37.95 µg/m3 14.66 µg/m3 29.08 °C 77.03 % 1,004.25 mbar 2.23 m/s 110.17 Deg 1.09 µg/m3
2022-08-07 08:00 8.33 µg/m3 0 µg/m3 72.39 µg/m3 46.06 µg/m3 24.98 µg/m3 28.16 °C 88.89 % 1,003.98 mbar 2.4 m/s 35.83 Deg 1.92 µg/m3
2022-08-07 07:00 15.64 µg/m3 0 µg/m3 56.86 µg/m3 48.91 µg/m3 8.94 µg/m3 27.41 °C 91.4 % 1,003.64 mbar 1.98 m/s 10.85 Deg 2.47 µg/m3
2022-08-07 06:00 20.49 µg/m3 0 µg/m3 49.1 µg/m3 44.17 µg/m3 10.2 µg/m3 26.61 °C 89.54 % 1,003.29 mbar 1.55 m/s 346.95 Deg 1.81 µg/m3
2022-08-07 05:00 23.37 µg/m3 0 µg/m3 44.35 µg/m3 22.38 µg/m3 5.9 µg/m3 26.59 °C 86.19 % 1,003.16 mbar 1.26 m/s 274.62 Deg 1.29 µg/m3
2022-08-07 04:00 14.82 µg/m3 0 µg/m3 56.01 µg/m3 19.47 µg/m3 7.32 µg/m3 27.04 °C 82.23 % 1,003.21 mbar 0.63 m/s 313.85 Deg 0.95 µg/m3
2022-08-07 03:00 7.7 µg/m3 0 µg/m3 65.46 µg/m3 16.21 µg/m3 6.49 µg/m3 27.1 °C 84.86 % 1,003.36 mbar 1.08 m/s 338.47 Deg 0.78 µg/m3
2022-08-07 02:00 5.73 µg/m3 0 µg/m3 63.25 µg/m3 15.34 µg/m3 8.75 µg/m3 27.14 °C 85.59 % 1,003.71 mbar 2.07 m/s 291.5 Deg 1 µg/m3
2022-08-07 01:00 4.54 µg/m3 0 µg/m3 63.23 µg/m3 18.57 µg/m3 13.56 µg/m3 27.3 °C 85.95 % 1,004.34 mbar 2.09 m/s 290.08 Deg 0.83 µg/m3
2022-08-07 00:00 8.32 µg/m3 0 µg/m3 56.81 µg/m3 26.39 µg/m3 15.42 µg/m3 27.38 °C 85.18 % 1,004.91 mbar 1.73 m/s 295.25 Deg 1.01 µg/m3
2022-08-06 23:00 8.47 µg/m3 0 µg/m3 53.8 µg/m3 45.07 µg/m3 14.09 µg/m3 27.7 °C 84.45 % 1,005.14 mbar 2.25 m/s 302.98 Deg 1.18 µg/m3
2022-08-06 22:00 7.43 µg/m3 0 µg/m3 56.33 µg/m3 53.01 µg/m3 20.35 µg/m3 27.98 °C 84.44 % 1,005.26 mbar 1.96 m/s 303.63 Deg 1.24 µg/m3
2022-08-06 21:00 9.43 µg/m3 0 µg/m3 56.59 µg/m3 53.44 µg/m3 13.17 µg/m3 28.34 °C 81.82 % 1,005.21 mbar 2.31 m/s 308.75 Deg 1.68 µg/m3
2022-08-06 20:00 10.21 µg/m3 0 µg/m3 59.86 µg/m3 50.8 µg/m3 9.16 µg/m3 28.83 °C 77 % 1,004.84 mbar 2.85 m/s 315.82 Deg 2.02 µg/m3
2022-08-06 19:00 10.58 µg/m3 0 µg/m3 66.08 µg/m3 24.3 µg/m3 6.19 µg/m3 30.09 °C 63.83 % 1,004.47 mbar 2.8 m/s 317.52 Deg 2 µg/m3
2022-08-06 18:00 7.4 µg/m3 0 µg/m3 77.47 µg/m3 7.96 µg/m3 5.74 µg/m3 31.59 °C 51.52 % 1,004.13 mbar 3.1 m/s 323.47 Deg 1.42 µg/m3
2022-08-06 17:00 7.69 µg/m3 0 µg/m3 83.51 µg/m3 7.34 µg/m3 6.18 µg/m3 32.64 °C 40.67 % 1,004.28 mbar 3.18 m/s 317.95 Deg 1.63 µg/m3
2022-08-06 16:00 7.15 µg/m3 0 µg/m3 86.06 µg/m3 11.93 µg/m3 5.48 µg/m3 33.47 °C 35.35 % 1,004.49 mbar 3.14 m/s 319.75 Deg 1.68 µg/m3
2022-08-06 15:00 6.51 µg/m3 0 µg/m3 93.83 µg/m3 14.66 µg/m3 6.98 µg/m3 33.75 °C 34.15 % 1,004.90 mbar 3.19 m/s 325.52 Deg 1.29 µg/m3
2022-08-06 14:00 8 µg/m3 0 µg/m3 97.06 µg/m3 19.43 µg/m3 7 µg/m3 34.03 °C 36.96 % 1,005.29 mbar 2.61 m/s 336.3 Deg 1.4 µg/m3
2022-08-06 13:00 9.54 µg/m3 0 µg/m3 96.76 µg/m3 31.16 µg/m3 7.4 µg/m3 33.46 °C 45.12 % 1,005.46 mbar 2.71 m/s 331.72 Deg 1.65 µg/m3
2022-08-06 12:00 13.47 µg/m3 0 µg/m3 89.8 µg/m3 29.68 µg/m3 5.03 µg/m3 31.83 °C 62.82 % 1,005.66 mbar 3.79 m/s 182.65 Deg 2.85 µg/m3
2022-08-06 11:00 15.88 µg/m3 0 µg/m3 87.11 µg/m3 17.7 µg/m3 6.53 µg/m3 32.18 °C 56.38 % 1,005.86 mbar 2.99 m/s 332.7 Deg 3.81 µg/m3
2022-08-06 10:00 15.39 µg/m3 0 µg/m3 82.18 µg/m3 11.97 µg/m3 7.29 µg/m3 31.5 °C 51.22 % 1,005.80 mbar 3.34 m/s 330.83 Deg 4.71 µg/m3
2022-08-06 09:00 14.29 µg/m3 0 µg/m3 78.02 µg/m3 16.02 µg/m3 7.62 µg/m3 30.12 °C 58.35 % 1,005.75 mbar 3.13 m/s 329.73 Deg 2.99 µg/m3
2022-08-06 08:00 16.93 µg/m3 0 µg/m3 70.19 µg/m3 26.85 µg/m3 12.36 µg/m3 28.79 °C 68.44 % 1,005.77 mbar 3.04 m/s 323.45 Deg 3.57 µg/m3
2022-08-06 07:00 19.94 µg/m3 0 µg/m3 61.28 µg/m3 30.59 µg/m3 13.35 µg/m3 27.57 °C 84.27 % 1,005.90 mbar 2.07 m/s 322.27 Deg 2.8 µg/m3
2022-08-06 06:00 22.18 µg/m3 0 µg/m3 54.64 µg/m3 29.34 µg/m3 13.14 µg/m3 26.65 °C 90.88 % 1,005.92 mbar 1.85 m/s 307.73 Deg 2.55 µg/m3
2022-08-06 05:00 10.85 µg/m3 0 µg/m3 61.55 µg/m3 19.12 µg/m3 13.65 µg/m3 26.62 °C 90.15 % 1,005.68 mbar 1.36 m/s 308.73 Deg 1.1 µg/m3
2022-08-06 04:00 7.59 µg/m3 0 µg/m3 61.3 µg/m3 24.72 µg/m3 15.84 µg/m3 26.58 °C 90.67 % 1,005.71 mbar 1.73 m/s 303.62 Deg 0.83 µg/m3
2022-08-06 03:00 7.32 µg/m3 0 µg/m3 61.39 µg/m3 27.52 µg/m3 15.29 µg/m3 26.75 °C 91.02 % 1,005.86 mbar 1.55 m/s 310.42 Deg 0.98 µg/m3
2022-08-06 02:00 7.42 µg/m3 0 µg/m3 59.68 µg/m3 43.99 µg/m3 12.74 µg/m3 26.97 °C 90.52 % 1,005.95 mbar 1.41 m/s 312.37 Deg 0.78 µg/m3
2022-08-06 01:00 8.52 µg/m3 0 µg/m3 64.75 µg/m3 44.18 µg/m3 16.45 µg/m3 27.22 °C 87.72 % 1,006.23 mbar 1.53 m/s 316.72 Deg 1 µg/m3
2022-08-06 00:00 9.64 µg/m3 0 µg/m3 68.28 µg/m3 56.01 µg/m3 17.58 µg/m3 27.46 °C 83.53 % 1,006.63 mbar 1.53 m/s 305.3 Deg 0.88 µg/m3
2022-08-05 23:00 11.48 µg/m3 0 µg/m3 69.29 µg/m3 47.73 µg/m3 16.32 µg/m3 27.93 °C 76.49 % 1,006.62 mbar 1.67 m/s 304.13 Deg 0.91 µg/m3
2022-08-05 22:00 17.6 µg/m3 0 µg/m3 66.09 µg/m3 40.49 µg/m3 8.11 µg/m3 28.42 °C 68.43 % 1,006.65 mbar 1.52 m/s 302.88 Deg 0.99 µg/m3
2022-08-05 21:00 18.59 µg/m3 0 µg/m3 68.69 µg/m3 48.25 µg/m3 7.88 µg/m3 29.26 °C 61.38 % 1,006.66 mbar 1.56 m/s 323.65 Deg 1.31 µg/m3
2022-08-05 20:00 17.46 µg/m3 0 µg/m3 78.98 µg/m3 27.99 µg/m3 5.97 µg/m3 29.81 °C 56.62 % 1,006.18 mbar 1.98 m/s 330.42 Deg 1.22 µg/m3
2022-08-05 19:00 20.86 µg/m3 0 µg/m3 83.84 µg/m3 13.93 µg/m3 5.29 µg/m3 31.14 °C 45.99 % 1,005.83 mbar 2.26 m/s 326.45 Deg 1.72 µg/m3
2022-08-05 18:00 14.39 µg/m3 0 µg/m3 91.36 µg/m3 13.63 µg/m3 5.99 µg/m3 32.11 °C 41.2 % 1,005.77 mbar 2.52 m/s 309.73 Deg 1.6 µg/m3
2022-08-05 17:00 11.49 µg/m3 0 µg/m3 99.19 µg/m3 19.01 µg/m3 5.44 µg/m3 32.38 °C 45.43 % 1,006.11 mbar 2.11 m/s 298.76 Deg 1.44 µg/m3
2022-08-05 16:00 10.12 µg/m3 0 µg/m3 99.05 µg/m3 16.79 µg/m3 4.41 µg/m3 32.05 °C 47.98 % 1,006.34 mbar 3.26 m/s 88.55 Deg 1.72 µg/m3
2022-08-05 15:00 7.2 µg/m3 0 µg/m3 97.09 µg/m3 12.55 µg/m3 5.1 µg/m3 32.01 °C 44.07 % 1,006.66 mbar 3.89 m/s 7.97 Deg 1.81 µg/m3
2022-08-05 14:00 6.95 µg/m3 0 µg/m3 88.75 µg/m3 15.33 µg/m3 3.6 µg/m3 31.73 °C 43.32 % 1,007.05 mbar 4.09 m/s 266.17 Deg 2.41 µg/m3
2022-08-05 13:00 8.07 µg/m3 0 µg/m3 88.85 µg/m3 19.87 µg/m3 4.32 µg/m3 31.31 °C 54.89 % 1,007.32 mbar 3.44 m/s 12.23 Deg 1.87 µg/m3
2022-08-05 12:00 10.96 µg/m3 0 µg/m3 86.93 µg/m3 15.46 µg/m3 5.76 µg/m3 30.85 °C 59.7 % 1,007.63 mbar 2.76 m/s 185.29 Deg 4.41 µg/m3
2022-08-05 11:00 7.92 µg/m3 0 µg/m3 83.88 µg/m3 18.43 µg/m3 7.37 µg/m3 30.3 °C 58.06 % 1,007.83 mbar 3 m/s 179.62 Deg 2.01 µg/m3
2022-08-05 10:00 10.23 µg/m3 0 µg/m3 75.86 µg/m3 19.67 µg/m3 10.42 µg/m3 30.03 °C 60.23 % 1,007.82 mbar 3.15 m/s 13.88 Deg 2.59 µg/m3
2022-08-05 09:00 16.08 µg/m3 0 µg/m3 66 µg/m3 28.11 µg/m3 14.04 µg/m3 29.98 °C 59.1 % 1,007.67 mbar 2.6 m/s 98.68 Deg 3.66 µg/m3
2022-08-05 08:00 35.46 µg/m3 0 µg/m3 52.75 µg/m3 45.3 µg/m3 22.85 µg/m3 29.02 °C 63.03 % 1,007.38 mbar 2.09 m/s 339.92 Deg 7.55 µg/m3
2022-08-05 07:00 58.66 µg/m3 0 µg/m3 26.56 µg/m3 51.65 µg/m3 17.66 µg/m3 27.31 °C 84.23 % 1,007.24 mbar 1.37 m/s 318.17 Deg 11.98 µg/m3
2022-08-05 06:00 37.46 µg/m3 0 µg/m3 44.34 µg/m3 28.37 µg/m3 19.92 µg/m3 26.44 °C 91.65 % 1,007.19 mbar 1.14 m/s 310.03 Deg 3.45 µg/m3
2022-08-05 05:00 19.8 µg/m3 0 µg/m3 61.67 µg/m3 31.86 µg/m3 13.08 µg/m3 26.45 °C 91.86 % 1,007.05 mbar 1.23 m/s 296.85 Deg 1.13 µg/m3
2022-08-05 04:00 10.43 µg/m3 0 µg/m3 79.33 µg/m3 21.26 µg/m3 10.06 µg/m3 26.84 °C 90.38 % 1,007.04 mbar 1.16 m/s 315.67 Deg 0.75 µg/m3
2022-08-05 03:00 7.53 µg/m3 0 µg/m3 92.31 µg/m3 25.71 µg/m3 13.27 µg/m3 27.21 °C 86.92 % 1,007.25 mbar 1.52 m/s 352.85 Deg 0.71 µg/m3
2022-08-05 02:00 6.46 µg/m3 0 µg/m3 79.01 µg/m3 28.04 µg/m3 11.09 µg/m3 27.36 °C 87.8 % 1,007.56 mbar 1.54 m/s 265.5 Deg 0.7 µg/m3
2022-08-05 01:00 4.45 µg/m3 0 µg/m3 83.41 µg/m3 23.02 µg/m3 17.37 µg/m3 27.74 °C 82.38 % 1,007.79 mbar 1.74 m/s 174.67 Deg 0.71 µg/m3
2022-08-05 00:00 14.29 µg/m3 0 µg/m3 68.07 µg/m3 23.53 µg/m3 8.78 µg/m3 27.87 °C 78.22 % 1,007.93 mbar 1.11 m/s 101.37 Deg 0.78 µg/m3
2022-08-04 23:00 7.53 µg/m3 0 µg/m3 79.67 µg/m3 35.27 µg/m3 13.42 µg/m3 27.88 °C 78.32 % 1,007.95 mbar 0.78 m/s 214.53 Deg 0.68 µg/m3
2022-08-04 22:00 6.73 µg/m3 0 µg/m3 88.52 µg/m3 45.49 µg/m3 16.36 µg/m3 28.16 °C 76.85 % 1,008.00 mbar 1.44 m/s 33.38 Deg 1.03 µg/m3
2022-08-04 21:00 5.1 µg/m3 0 µg/m3 95.17 µg/m3 48.88 µg/m3 14.79 µg/m3 28.38 °C 75.12 % 1,007.86 mbar 2.11 m/s 35.45 Deg 0.82 µg/m3
2022-08-04 20:00 8.98 µg/m3 0 µg/m3 104.57 µg/m3 26.82 µg/m3 15.92 µg/m3 28.63 °C 73.03 % 1,007.33 mbar 1.84 m/s 37.58 Deg 0.7 µg/m3
2022-08-04 19:00 9.59 µg/m3 0 µg/m3 116.36 µg/m3 26.54 µg/m3 15.59 µg/m3 29.31 °C 66.39 % 1,007.16 mbar 1.75 m/s 125.38 Deg 0.69 µg/m3
2022-08-04 18:00 5.79 µg/m3 0 µg/m3 119.94 µg/m3 19.2 µg/m3 6.86 µg/m3 29.93 °C 63.67 % 1,007.06 mbar 1.98 m/s 215.05 Deg 0.73 µg/m3
2022-08-04 17:00 17.92 µg/m3 0 µg/m3 101.98 µg/m3 19.29 µg/m3 9.6 µg/m3 30.36 °C 60.46 % 1,006.98 mbar 2.26 m/s 163.45 Deg 1.86 µg/m3
2022-08-04 16:00 7.94 µg/m3 0 µg/m3 124.53 µg/m3 13.95 µg/m3 9.68 µg/m3 30.31 °C 65.54 % 1,006.93 mbar 2.54 m/s 166.77 Deg 0.93 µg/m3
2022-08-04 15:00 2.3 µg/m3 0 µg/m3 117.6 µg/m3 15.22 µg/m3 15.1 µg/m3 30.4 °C 63.48 % 1,007.21 mbar 2.3 m/s 226.15 Deg 0.6 µg/m3
2022-08-04 14:00 2.43 µg/m3 0 µg/m3 116.91 µg/m3 23.55 µg/m3 8.09 µg/m3 29.94 °C 68.02 % 1,007.51 mbar 2.96 m/s 149.22 Deg 0.62 µg/m3
2022-08-04 13:00 2.68 µg/m3 0 µg/m3 113.98 µg/m3 18.54 µg/m3 11.81 µg/m3 29.93 °C 69.61 % 1,007.85 mbar 3.02 m/s 164.52 Deg 0.63 µg/m3
2022-08-04 12:00 3.1 µg/m3 0 µg/m3 112.7 µg/m3 22.6 µg/m3 9.39 µg/m3 29.59 °C 70.6 % 1,008.08 mbar 3.41 m/s 165.83 Deg 0.91 µg/m3
2022-08-04 11:00 6.9 µg/m3 0 µg/m3 103.43 µg/m3 36.58 µg/m3 11.76 µg/m3 30.2 °C 66.05 % 1,008.08 mbar 2.44 m/s 212.82 Deg 1.93 µg/m3
2022-08-04 10:00 12.19 µg/m3 0 µg/m3 92.04 µg/m3 39.69 µg/m3 11.82 µg/m3 29.54 °C 68.37 % 1,007.90 mbar 2.47 m/s 179.18 Deg 4.43 µg/m3
2022-08-04 09:00 11.56 µg/m3 0 µg/m3 82.44 µg/m3 55.56 µg/m3 19.65 µg/m3 28.74 °C 72.49 % 1,007.62 mbar 2.75 m/s 26.53 Deg 2.19 µg/m3
2022-08-04 08:00 21.64 µg/m3 0 µg/m3 64.15 µg/m3 48.96 µg/m3 17.44 µg/m3 28.15 °C 73.76 % 1,007.27 mbar 2.44 m/s 28.25 Deg 4.36 µg/m3
2022-08-04 07:00 45.94 µg/m3 0 µg/m3 34.45 µg/m3 42.75 µg/m3 12.39 µg/m3 27.48 °C 74.65 % 1,006.97 mbar 1.38 m/s 22.15 Deg 9.41 µg/m3
2022-08-04 06:00 63.09 µg/m3 0 µg/m3 9.51 µg/m3 35.41 µg/m3 11.2 µg/m3 26.48 °C 80.01 % 1,006.72 mbar 1.29 m/s 262.95 Deg 16.54 µg/m3
2022-08-04 05:00 35.3 µg/m3 0 µg/m3 27.66 µg/m3 15.54 µg/m3 11.43 µg/m3 26.35 °C 78.05 % 1,006.50 mbar 1.12 m/s 346.6 Deg 4.52 µg/m3
2022-08-04 04:00 11.74 µg/m3 0 µg/m3 66.1 µg/m3 9.63 µg/m3 7.55 µg/m3 26.62 °C 77.07 % 1,006.59 mbar 0.56 m/s 350.45 Deg 0.73 µg/m3
2022-08-04 03:00 6.96 µg/m3 0 µg/m3 71.03 µg/m3 13.79 µg/m3 7.61 µg/m3 26.85 °C 76.29 % 1,006.65 mbar 0.8 m/s 15.85 Deg 0.7 µg/m3
2022-08-04 02:00 4.56 µg/m3 0 µg/m3 73.25 µg/m3 17.9 µg/m3 11.69 µg/m3 26.87 °C 74.74 % 1,006.98 mbar 0.55 m/s 29.41 Deg 0.59 µg/m3
2022-08-04 01:00 5.02 µg/m3 0 µg/m3 76.87 µg/m3 23.44 µg/m3 7.8 µg/m3 27.02 °C 73.29 % 1,007.10 mbar 0.62 m/s 26.56 Deg 0.6 µg/m3
2022-08-04 00:00 3.2 µg/m3 0 µg/m3 82.43 µg/m3 28.62 µg/m3 9.65 µg/m3 26.98 °C 75.71 % 1,007.21 mbar 0.72 m/s 86.6 Deg 0.59 µg/m3
2022-08-03 23:00 8.43 µg/m3 0 µg/m3 74.21 µg/m3 20.75 µg/m3 12.21 µg/m3 27.18 °C 76.9 % 1,007.03 mbar 0.89 m/s 23.75 Deg 0.86 µg/m3

It is to be noted that the data is provisional and subject to quality assurance procedures. For validated data kindly refer your request to contact.air@era.org.mt